Voltar ao catálogo

TITAN 3C TRANSTAGE DEB

AtivoLEO
NORAD 1646·DEBRIS·🇺🇸 United States

Lançado Oct 15, 1965 de Cape Canaveral Space Force Station

Loading…

Próximas Passagens (próximas 24 horas)

TLE

AtualizadoSource: Space-Track

Época: Sep 13, 2026, 23:54 UTC

1 01646U 65082H   26256.99583940  .00000768  00000-0  10017-3 0  9999
2 01646  32.3085 175.5923 0002744 348.1131  11.9457 14.77634211233326

Acompanhe TITAN 3C TRANSTAGE DEB em tempo real com AllMySat

Download on the App Store